Location: Unspecified
(0.0000°N, 0.0000°E)
Time: 03:25:31
(UTC+00:00)

CZ-3C DEB - Pass Details

Date: 17 February 2026
Orbit: 610 x 36841 km, 20.5° (Epoch: 4 October)

Event Time Altitude Azimuth Distance (km) Brightness Sun altitude
Rises 10:20:03 0° 288° (WNW) 9,981 ? 59.3°
Reaches altitude 10° 10:25:16 10° 292° (WNW) 10,431 ? 60.5°
Maximum altitude 12:37:09 58° 314° (NW) 29,666 ? 76.8°
Enters shadow 20:42:09 19° 151° (SSE) 3,464 ? -36.1°
